Погода в Ареццо

Италия     43°27′37″N   11°51′40″E
темп.,
°C
ветер,
м/с
пор.,
м/с
влажн.,
%
обл.,
%
осадки,
мм/ч
давл.,
гПа
погр.,
м
24 июля, сб
сб2423:00+19сз22656 0.0 101515
02:00+17с1174100 0.0 101511
05:00+17св11785 0.0 101511
08:00+22вюв11555 0.0 1014175
11:00+31зюз34275 0.0 10131196
14:00+36з4618100 0.0 10112068
17:00+36юз7720100 0.0 10112446
20:00+28зюз3436100 0.0 101285
25 июля, вс
вс2523:00+21сз1163100 0.0 101311
02:00+19вюв2269100 0.0 101214
05:00+17всв227373 0.0 101212
08:00+22вюв2352100 0.0 1012297
11:00+28ю5640100 0.2 1012927
14:00+28юв1441100 0.6 1011539
17:00+35юз81124100 0.0 10092017
20:00+27зюз3547100 0.0 1010147
26 июля, пн
пн2623:00+20ю1170100 0.0 101211
02:00+19св226227 0.0 101111
05:00+18всв116226 0.0 101211
08:00+23вюв234788 0.0 1013243
11:00+31ююз46365 0.0 10131399
14:00+32юз4833100 0.0 10121486
17:00+23ююв61359100 0.8 1015442
20:00+24ю2356100 0.8 1014164
27 июля, вт
вт2723:00+20вюв117297 0.0 101611
02:00+20всв1181100 0.1 101511
05:00+18ююз118899 0.0 101711
08:00+23ююв126978 0.0 1017180
11:00+24ююз1458100 0.1 1018604
14:00+27юз4748100 0.4 1017872
17:00+28зюз253989 0.0 1015515
20:00+28юз363814 0.0 1015221
28 июля, ср
ср2823:00+21зсз016698 0.0 101611
02:00+19в117420 0.0 101611
05:00+17всв11844 0.0 101611
08:00+22вюв22600 0.0 1016234
11:00+30ююз34410 0.0 10151262
14:00+35зюз47260 0.0 10132591
17:00+36юз66210 0.0 10122810
20:00+30зюз58390 0.0 1013557